Home   Weather   Juneau   Past weeks

Flag for USA Past Weather in Juneau, Alaska, USA — Yesterday and Last 2 Weeks

Now
37 °F

Mostly cloudy.


Feels Like: 37 °F
Forecast: 31 / 38 °F
Wind: No wind

Location: Juneau International Airport

Current Time: Jan 17, 2017 at 2:53:23 pm

Latest Report: Jan 17, 2017 at 1:53 pm


Visibility: 10 mi

Pressure: 29.09 "Hg

Humidity: 89%

Dew Point: 34 °F

Location of JuneauLocation

Past Weather in Juneau — Graph

°F

Juneau Temperature Yesterday

Maximum temperature yesterday: 42 °F (at 12:53 am)
Minimum temperature yesterday: 37 °F (at 10:53 pm)
Average temperature yesterday: 40 °F

High & Low Weather Summary for the Past Weeks

 TemperatureHumidityPressure
High43 °F (Jan 15, 10:53 pm)100% (Jan 5, 7:53 am)30.58 "Hg (Jan 5, 7:53 am)
Low9 °F (Jan 11, 5:53 am)25% (Jan 7, 11:53 pm)29.03 "Hg (Jan 16, 3:53 pm)
Average29 °F77%29.95 "Hg
* Reported Jan 2 12:53 pm — Jan 17 12:53 pm, Juneau, Weather by CustomWeather, © 2017

Note: Actual official high and low records may vary slightly from our data, if they occured in-between our weather recording intervals... More about our weather records

Advertising

Juneau Weather History for the Previous 24 Hours

Scroll right to see more
 ConditionsComfort  
Time TempWeatherWind HumidityBarometerVisibility
12:53 pm
Tue, Jan 17
36 °FCloudy.No wind89%29.12 "Hg10 mi
11:53 am36 °FCloudy.No wind97%29.14 "Hg10 mi
10:53 am35 °FMostly cloudy.6 mph96%29.18 "Hg10 mi
9:53 am34 °FMostly cloudy.No wind100%29.18 "Hg7 mi
8:53 am33 °FCloudy.3 mph96%29.20 "Hg10 mi
7:53 am34 °FMostly cloudy.5 mph92%29.22 "Hg10 mi
6:53 am33 °FMostly cloudy.5 mph96%29.24 "Hg7 mi
6:26 am33 °FFog.No wind100%29.24 "Hg4 mi
5:53 am34 °FFog.No wind97%29.26 "Hg1 mi
4:53 am34 °FPartly cloudy.No wind97%29.27 "Hg10 mi
3:53 am35 °FLight rain. Mostly cloudy.No wind92%29.28 "Hg10 mi
2:53 am34 °FMostly cloudy.7 mph97%29.28 "Hg10 mi
1:53 am36 °FMostly cloudy.3 mph89%29.28 "Hg10 mi
12:53 am35 °FMostly cloudy.3 mph92%29.26 "Hg10 mi
11:53 pm
Mon, Jan 16
37 °FLight rain. Overcast.No wind89%29.25 "Hg10 mi
10:53 pm37 °FLight rain. Mostly cloudy.7 mph96%29.24 "Hg10 mi
9:53 pm38 °FMostly cloudy.No wind93%29.21 "Hg10 mi
8:53 pm40 °FLight rain. Mostly cloudy.8 mph89%29.18 "Hg10 mi
8:26 pm40 °FLight rain. Mostly cloudy.7 mph93%29.17 "Hg10 mi
7:53 pm40 °FLight rain. Fog.6 mph93%29.16 "Hg6 mi
7:33 pm40 °FLight rain. Fog.8 mph93%29.14 "Hg5 mi
6:53 pm40 °FLight rain. Fog.8 mph89%29.13 "Hg5 mi
5:53 pm41 °FLight rain. Fog.22 mph89%29.08 "Hg5 mi
4:53 pm41 °FLight rain. Fog.28 mph86%29.05 "Hg5 mi
3:53 pm41 °FLight rain. Fog.33 mph86%29.03 "Hg6 mi
2:53 pm42 °FLight rain. Fog.28 mph85%29.03 "Hg6 mi
2:26 pm42 °FLight rain. Mostly cloudy.28 mph85%29.05 "Hg7 mi
Weather by CustomWeather, © 2017

See weather overviewHow to use our weather pages